SCP
0 0 0 0 -0 0 0 0 0 0 0 0 0 0 0 0 0 0 0 0 0 0 0 0 0 0 0 0 0 0 0 0 0 0 0 0 0 0 0 0 0 0 0 0
0 -0 0 0 0 0 0 0 0 0 0 0 0 0 0 0 0 0 0 0 0 0 0 0 0 0 0 0 0 0 0 0 0 0 0 0 0 0 0 0 0 0 0 0
0 0 0 0 0 0 0 0 0 0 0 0 0 0 0 0 0 0 0 0 0 0 0 0 0 0 0 0 0 0 0 0 0 0 0 0 0 0 0 0 0 0 0 0
0 0 0 0 0 -0 0 0 0 0 0 0 0 0 0 0 0 0 0 0 0 0 0 0 0 0 0 0 0 0 0 0 0 0 0 0 0 0 0 0 0 0 0 0
0 0 0 0 0 0 0 0 0 0 0 0 0 0 0 0 0 0 0 0 0 0 0 0 0 0 0 0 0 0 0 0 0 0 0 0 0 0 0 0 0 0 0 0
0 0 0 0 0 0 0 0 0 0 0 0 0 0 0 0 0 0 0 0 0 0 0 0 0 0 0 0 0 0 0 0 0 0 0 0 0 0 0 0 0 0 0 0
0 0 0 0 0 0 0 0 0 0 0 0 0 0 0 0 0 0 0 0 0 0 0 0 0 0 0 0 0 0 0 0 0 0 0 0 0 0 0 0 0 0 0 0
0 0 0 0 0 0 0 0 0 0 0 0 0 0 0 0 0 0 0 0 0 0 0 0 0 0 0 0 0 0 0 0 0 0 0 0 0 0 0 0 0 0 0 0
0 0 0 0 0 0 0 0 0 0 0 0 0 0 0 0 0 0 0 0 0 0 0 0 0 0 0 0 0 0 0 0 0 0 0 0 0 0 0 0 0 0 0 0
0 0 0 0 0 0 0 0 0 0 0 0 0 0 0 0 0 0 0 0 0 0 0 0 0 0 0 0 0 0 0 0 0 0 0 0 0 0 0 0 0 0 0 0
0 0 0 0 0 0 0 0 0 0 0 0 0 0 0 0 0 0 0 0 0 0 0 0 0 0 0 0 0 0 0 0 0 0 0 0 0 0 0 0 0 0 0 0
0 0 0 0 0 0 0 0 0 0 0 0 0 0 0 0 0 0 0 0 0 0 0 0 0 0 0 0 0 0 0 0 0 0 0 0 0 0 0 0 0 0 0 0
0 0 0 0 0 0 0 0 0 0 0 0 0 0 0 0 0 0 0 0 0 0 0 0 0 0 0 0 0 0 0 0 0 0 0 0 0 0 0 0 0 0 0 0
0 0 0 0 0 0 0 0 0 0 0 0 0 0 0 0 0 0 0 0 0 0 0 0 0 0 0 0 0 0 0 0 0 0 0 0 0 0 0 0 0 0 0 0
0 0 0 0 0 0 0 0 0 0 0 0 0 0 0 0 0 0 0 0 0 0 0 0 0 0 0 0 0 0 0 0 0 0 0 0 0 0 0 0 0 0 0 0
0 0 0 0 0 0 0 0 0 0 0 0 0 0 0 0 0 0 0 0 0 0 0 0 0 0 0 0 0 0 0 0 0 0 0 0 0 0 0 0 0 0 0 0
0 0 0 0 0 0 0 0 0 0 0 0 0 0 0 0 0 0 0 0 0 0 0 0 0 0 0 0 0 0 0 0 0 0 0 0 0 0 0 0 0 0 0 0
0 0 0 0 0 0 0 0 0 0 0 0 0 0 0 0 0 0 0 0 0 0 0 0 0 0 0 0 0 0 0 0 0 0 0 0 0 0 0 0 0 0 0 0
0 0 0 0 0 0 0 0 0 0 0 0 0 0 0 0 0 0 0 0 0 0 0 0 0 0 0 0 0 0 0 0 0 0 0 0 0 0 0 0 0 0 0 0
0 0 0 0 0 0 0 0 0 0 0 0 0 0 0 0 0 0 0 0 0 0 0 0 0 0 0 0 0 0 0 0 0 0 0 0 0 0 0 0 0 0 0 0
0 0 0 0 0 0 0 0 0 0 0 0 0 0 0 0 0 0 0 0 0 0 0 0 0 0 0 0 0 0 0 0 0 0 0 0 0 0 0 0 0 0 0 0
0 0 0 0 0 0 0 0 0 0 0 0 0 0 0 0 0 0 0 0 0 0 0 0 0 0 0 0 0 0 0 0 0 0 0 0 0 0 0 0 0 0 0 0
0 0 0 0 0 0 0 0 0 0 0 0 0 0 0 0 0 0 0 0 0 0 0 0 0 0 0 0 0 0 0 0 0 0 0 0 0 0 0 0 0 0 0 0
0 0 0 0 0 0 0 0 0 0 0 0 0 0 0 0 0 0 0 0 0 0 0 0 0 0 0 0 0 0 0 0 0 0 0 0 0 0 0 0 0 0 0 0
0 0 0 0 0 0 0 0 0 0 0 0 0 0 0 0 0 0 0 0 0 0 0 0 0 0 0 0 0 0 0 0 0 0 0 0 0 0 0 0 0 0 0 0
0 0 0 0 0 0 0 0 0 0 0 0 0 0 0 0 0 0 0 0 0 0 0 0 0 0 0 0 0 0 0 0 0 0 0 0 0 0 0 0 0 0 0 0
Wind_Speed_500mb
14 18 23 26 25 15 3 9 7 4 3 8 8 15 17 19 22 23 19 17 16 15 15 16 16 18 18 18 18 20 19 20 18 11 4 3 8 9 13 17 22 26 30 34
16 25 2 9 10 18 19 15 12 10 7 9 17 17 14 19 24 21 20 19 19 19 16 16 16 17 17 19 21 22 23 24 22 19 15 13 12 10 9 13 16 17 19 21
20 14 12 18 21 21 17 18 12 2 13 5 18 17 22 21 19 21 20 18 19 20 19 18 17 17 17 19 21 22 24 22 21 18 15 16 14 14 12 15 15 18 21 24
12 11 18 20 22 18 22 4 5 12 14 9 13 12 28 29 27 30 30 28 26 24 22 21 20 18 17 17 20 24 26 26 25 23 18 12 9 8 12 14 17 19 23 24
13 19 19 21 6 4 13 7 4 5 13 15 22 16 12 22 23 30 35 33 30 28 27 26 24 19 17 16 18 23 25 26 27 25 21 16 15 14 13 13 16 21 22 22
12 6 5 5 11 2 18 14 10 12 15 22 15 12 25 21 12 16 36 34 34 34 32 29 25 21 17 15 15 18 21 23 23 22 21 20 19 17 13 17 16 17 18 20
14 17 10 14 17 13 18 16 17 15 16 12 10 10 23 8 2 10 14 35 36 36 36 32 27 22 20 16 14 13 14 16 17 16 16 15 15 17 18 17 16 18 18 21
19 19 21 9 15 11 20 17 18 16 14 8 13 13 3 6 3 10 14 30 36 38 36 34 30 25 22 18 15 13 10 9 9 12 15 14 16 12 14 18 15 15 16 20
16 18 13 1 5 9 13 20 9 17 18 19 25 8 18 8 7 11 21 30 36 36 34 32 30 25 19 17 14 12 8 2 1 4 7 6 8 10 10 13 14 12 15 16
8 9 8 11 9 7 13 9 9 16 17 24 13 11 19 14 13 15 25 34 37 34 33 30 27 25 23 19 17 15 12 9 9 6 4 3 5 6 9 10 11 14 18 20
13 15 15 10 21 18 12 19 13 10 11 20 24 13 8 7 12 16 23 31 37 35 33 32 30 27 26 23 20 19 18 16 15 14 12 12 10 10 11 13 15 18 23 23
17 14 23 24 9 5 10 20 16 16 19 13 17 28 11 8 8 15 18 25 31 32 31 32 32 31 30 29 27 25 22 19 19 18 17 16 16 15 18 19 21 24 27 28
17 16 21 15 11 13 18 22 21 14 11 28 26 21 9 12 12 9 13 21 28 30 31 32 32 33 33 31 29 25 22 19 19 21 19 18 19 19 21 23 27 30 33 32
13 13 24 26 17 3 19 24 26 28 21 28 30 34 14 17 14 11 12 11 15 19 26 29 29 30 29 27 26 23 21 19 18 17 18 19 21 27 32 31 30 28 25 27
11 20 25 28 12 13 18 21 28 33 35 33 30 28 19 24 22 17 16 9 9 7 8 11 14 15 16 18 19 19 19 18 16 12 12 16 30 38 42 38 39 26 18 16
11 17 15 26 17 20 28 28 32 35 37 33 34 37 30 36 24 19 15 13 18 23 25 25 23 18 12 6 4 10 12 12 12 12 20 30 30 26 27 24 29 30 37 43
17 17 15 30 19 23 29 38 40 39 38 29 34 26 13 9 14 17 18 22 25 26 25 23 20 17 15 12 10 5 4 4 3 2 7 8 9 14 20 33 41 42 37 43
19 23 19 23 7 30 21 2 16 29 32 29 25 19 12 12 19 20 20 23 22 20 18 15 13 15 14 14 13 10 11 10 7 5 5 9 20 32 37 34 32 31 32 34
14 20 19 20 25 30 22 14 15 19 25 27 26 15 18 24 25 21 18 16 16 15 14 14 13 14 15 14 14 13 11 8 8 7 13 21 24 25 27 29 31 31 30 30
13 13 20 15 24 22 9 10 16 9 26 31 28 26 33 34 21 19 25 18 17 15 14 14 13 12 12 7 7 8 7 6 8 11 15 20 22 22 25 28 29 31 31 30
20 21 31 28 26 18 7 24 25 18 1 24 32 35 39 28 8 34 29 22 18 17 16 15 12 8 7 4 6 3 5 4 8 13 15 19 21 23 26 29 29 30 28 27
26 18 23 28 37 37 20 28 24 7 19 30 33 37 37 23 23 28 27 25 23 20 17 13 12 9 5 6 7 3 2 5 10 12 18 21 22 25 27 28 28 27 26 23
24 31 21 20 14 5 40 25 30 15 25 29 32 35 37 33 30 30 29 26 23 20 17 16 14 11 8 4 1 6 7 8 13 17 17 21 24 26 26 26 25 21 23 25
26 14 17 11 26 19 28 29 25 23 20 26 32 37 37 35 33 31 29 27 23 19 18 16 12 7 4 1 5 6 10 14 14 12 17 23 24 25 19 19 22 27 28 28
14 31 27 25 9 16 24 35 29 28 24 33 33 36 35 34 32 31 29 27 24 23 21 15 11 6 3 4 7 9 13 15 15 12 14 14 12 13 16 19 20 21 24 38
23 20 23 18 32 31 25 41 34 35 37 38 42 38 32 33 33 31 30 28 27 23 19 14 8 3 1 4 8 9 12 10 9 6 7 6 7 12 15 19 22 25 34 40
Wind_Direction_500mb
199 239 217 212 223 312 243 246 209 79 128 220 224 171 176 183 192 184 178 167 151 128 110 95 89 84 79 82 78 72 66 62 66 81 131 210 326 312 301 296 296 297 293 290
203 228 192 274 199 221 223 207 130 121 151 260 183 188 202 195 198 193 186 178 162 145 129 112 100 93 92 89 81 73 66 60 62 57 45 26 18 11 6 341 325 320 317 313
254 87 162 193 191 203 211 234 157 13 152 204 187 187 192 197 203 205 206 186 173 164 153 137 123 109 94 89 83 78 74 69 65 60 40 22 17 23 23 13 9 344 341 335
220 126 178 192 186 228 176 149 165 156 225 241 204 278 188 176 203 207 203 198 186 174 161 153 142 129 113 95 93 86 75 66 58 61 57 66 53 38 22 20 356 3 353 353
120 173 186 196 143 240 91 158 211 239 261 289 198 249 117 174 204 208 207 200 192 182 172 163 156 143 127 107 96 85 72 59 52 49 55 57 59 40 34 26 24 16 4 2
94 126 248 67 108 222 144 173 202 241 260 248 249 259 266 194 224 219 194 203 194 182 175 167 161 152 141 123 109 91 76 63 55 48 44 43 46 56 46 37 33 24 19 15
174 164 132 172 151 154 210 222 249 229 210 246 104 243 269 88 11 248 228 202 191 180 177 173 169 163 155 143 129 111 87 71 62 50 37 32 41 49 39 45 28 37 26 23
208 182 182 162 260 273 215 282 272 285 272 268 155 252 122 78 232 226 237 190 184 180 178 176 176 173 167 159 146 137 116 92 60 37 32 45 58 55 51 47 56 42 36 29
217 230 128 50 201 272 174 235 353 287 251 265 265 224 207 187 194 194 189 181 185 185 184 184 186 181 173 174 177 170 169 185 212 9 17 24 38 62 51 42 47 23 27 19
199 238 203 146 182 110 276 113 210 209 272 277 278 249 268 186 205 191 190 194 190 190 192 196 196 195 193 194 197 204 212 216 229 231 249 248 314 352 354 360 358 354 357 358
218 242 152 186 210 230 177 218 240 299 299 293 294 300 70 224 183 190 202 202 199 199 202 205 206 207 206 207 209 211 214 220 234 240 241 247 248 277 304 315 316 319 327 328
200 237 244 220 105 273 271 259 231 251 249 240 295 280 105 147 212 209 210 208 214 217 218 220 219 215 211 215 215 219 216 222 231 233 238 247 253 271 282 291 297 303 306 306
180 209 222 204 194 198 226 212 235 254 275 264 278 266 141 164 184 192 226 222 221 225 227 226 223 220 219 220 220 222 227 233 239 242 245 258 255 271 284 289 292 297 302 297
186 230 231 253 290 77 198 220 219 222 254 274 261 263 221 189 216 224 248 244 251 238 230 231 231 230 229 226 225 227 232 239 249 251 257 266 269 270 282 295 300 299 300 297
221 234 234 250 253 232 251 232 225 234 248 259 270 271 264 270 263 270 283 252 204 170 168 187 211 217 216 220 223 229 237 244 254 270 286 284 286 286 284 282 281 280 281 291
194 235 237 240 231 252 251 245 249 240 244 254 258 268 275 276 272 250 238 168 135 116 110 104 103 105 107 124 193 231 244 251 248 279 270 292 305 312 301 291 294 292 291 285
196 215 221 251 257 265 257 247 245 243 244 253 256 273 1 252 222 199 164 141 127 116 107 103 100 95 90 78 73 75 181 254 287 60 67 29 357 346 327 323 320 318 306 294
203 209 239 255 216 250 257 1 264 257 252 238 244 264 259 209 169 159 159 143 130 118 110 104 101 90 75 69 64 66 77 85 91 71 19 336 321 322 323 326 327 322 317 315
225 218 234 241 229 254 219 200 212 215 239 219 239 222 189 154 157 157 150 143 133 122 108 101 97 93 86 75 73 72 67 56 49 5 332 337 342 333 326 319 319 318 314 315
196 237 236 213 241 251 71 67 183 225 256 220 212 183 169 167 197 162 163 149 137 128 122 115 107 98 85 56 60 62 28 24 10 2 341 325 324 322 320 317 318 314 312 310
202 215 225 232 236 263 198 150 161 218 148 151 180 176 175 190 99 134 150 151 147 139 129 123 120 119 78 30 348 11 86 346 330 327 340 331 322 323 321 319 320 316 314 305
212 208 223 232 241 241 161 167 206 166 139 160 176 178 179 164 138 140 147 150 146 142 132 134 129 116 120 111 108 119 314 317 323 329 324 321 319 322 319 320 322 320 315 322
237 231 240 212 239 117 184 206 202 173 165 172 177 175 174 166 160 154 152 151 153 152 152 140 137 128 121 116 201 281 277 314 316 313 319 320 322 320 321 323 325 333 329 331
219 202 222 187 217 204 196 201 203 193 188 180 175 174 175 172 163 157 153 153 154 154 145 146 153 169 183 256 332 321 302 296 294 298 318 318 325 332 340 347 340 344 348 341
205 174 214 225 202 193 208 206 203 192 182 168 167 169 171 167 162 159 157 159 161 156 152 156 164 176 234 301 305 309 301 298 296 303 316 335 347 4 2 357 348 356 345 338
187 197 203 226 223 212 220 200 190 180 170 167 162 161 163 163 159 157 157 160 157 156 156 155 152 161 205 307 306 309 305 301 286 300 335 333 356 345 353 357 355 350 353 358
Wind_Speed_850mb
14 18 23 26 25 15 3 9 7 4 3 8 8 15 17 19 22 23 19 17 16 15 15 16 16 18 18 18 18 20 19 20 18 11 4 3 8 9 13 17 22 26 30 34
16 25 2 9 10 18 19 15 12 10 7 9 17 17 14 19 24 21 20 19 19 19 16 16 16 17 17 19 21 22 23 24 22 19 15 13 12 10 9 13 16 17 19 21
20 14 12 18 21 21 17 18 12 2 13 5 18 17 22 21 19 21 20 18 19 20 19 18 17 17 17 19 21 22 24 22 21 18 15 16 14 14 12 15 15 18 21 24
12 11 18 20 22 18 22 4 5 12 14 9 13 12 28 29 27 30 30 28 26 24 22 21 20 18 17 17 20 24 26 26 25 23 18 12 9 8 12 14 17 19 23 24
13 19 19 21 6 4 13 7 4 5 13 15 22 16 12 22 23 30 35 33 30 28 27 26 24 19 17 16 18 23 25 26 27 25 21 16 15 14 13 13 16 21 22 22
12 6 5 5 11 2 18 14 10 12 15 22 15 12 25 21 12 16 36 34 34 34 32 29 25 21 17 15 15 18 21 23 23 22 21 20 19 17 13 17 16 17 18 20
14 17 10 14 17 13 18 16 17 15 16 12 10 10 23 8 2 10 14 35 36 36 36 32 27 22 20 16 14 13 14 16 17 16 16 15 15 17 18 17 16 18 18 21
19 19 21 9 15 11 20 17 18 16 14 8 13 13 3 6 3 10 14 30 36 38 36 34 30 25 22 18 15 13 10 9 9 12 15 14 16 12 14 18 15 15 16 20
16 18 13 1 5 9 13 20 9 17 18 19 25 8 18 8 7 11 21 30 36 36 34 32 30 25 19 17 14 12 8 2 1 4 7 6 8 10 10 13 14 12 15 16
8 9 8 11 9 7 13 9 9 16 17 24 13 11 19 14 13 15 25 34 37 34 33 30 27 25 23 19 17 15 12 9 9 6 4 3 5 6 9 10 11 14 18 20
13 15 15 10 21 18 12 19 13 10 11 20 24 13 8 7 12 16 23 31 37 35 33 32 30 27 26 23 20 19 18 16 15 14 12 12 10 10 11 13 15 18 23 23
17 14 23 24 9 5 10 20 16 16 19 13 17 28 11 8 8 15 18 25 31 32 31 32 32 31 30 29 27 25 22 19 19 18 17 16 16 15 18 19 21 24 27 28
17 16 21 15 11 13 18 22 21 14 11 28 26 21 9 12 12 9 13 21 28 30 31 32 32 33 33 31 29 25 22 19 19 21 19 18 19 19 21 23 27 30 33 32
13 13 24 26 17 3 19 24 26 28 21 28 30 34 14 17 14 11 12 11 15 19 26 29 29 30 29 27 26 23 21 19 18 17 18 19 21 27 32 31 30 28 25 27
11 20 25 28 12 13 18 21 28 33 35 33 30 28 19 24 22 17 16 9 9 7 8 11 14 15 16 18 19 19 19 18 16 12 12 16 30 38 42 38 39 26 18 16
11 17 15 26 17 20 28 28 32 35 37 33 34 37 30 36 24 19 15 13 18 23 25 25 23 18 12 6 4 10 12 12 12 12 20 30 30 26 27 24 29 30 37 43
17 17 15 30 19 23 29 38 40 39 38 29 34 26 13 9 14 17 18 22 25 26 25 23 20 17 15 12 10 5 4 4 3 2 7 8 9 14 20 33 41 42 37 43
19 23 19 23 7 30 21 2 16 29 32 29 25 19 12 12 19 20 20 23 22 20 18 15 13 15 14 14 13 10 11 10 7 5 5 9 20 32 37 34 32 31 32 34
14 20 19 20 25 30 22 14 15 19 25 27 26 15 18 24 25 21 18 16 16 15 14 14 13 14 15 14 14 13 11 8 8 7 13 21 24 25 27 29 31 31 30 30
13 13 20 15 24 22 9 10 16 9 26 31 28 26 33 34 21 19 25 18 17 15 14 14 13 12 12 7 7 8 7 6 8 11 15 20 22 22 25 28 29 31 31 30
20 21 31 28 26 18 7 24 25 18 1 24 32 35 39 28 8 34 29 22 18 17 16 15 12 8 7 4 6 3 5 4 8 13 15 19 21 23 26 29 29 30 28 27
26 18 23 28 37 37 20 28 24 7 19 30 33 37 37 23 23 28 27 25 23 20 17 13 12 9 5 6 7 3 2 5 10 12 18 21 22 25 27 28 28 27 26 23
24 31 21 20 14 5 40 25 30 15 25 29 32 35 37 33 30 30 29 26 23 20 17 16 14 11 8 4 1 6 7 8 13 17 17 21 24 26 26 26 25 21 23 25
26 14 17 11 26 19 28 29 25 23 20 26 32 37 37 35 33 31 29 27 23 19 18 16 12 7 4 1 5 6 10 14 14 12 17 23 24 25 19 19 22 27 28 28
14 31 27 25 9 16 24 35 29 28 24 33 33 36 35 34 32 31 29 27 24 23 21 15 11 6 3 4 7 9 13 15 15 12 14 14 12 13 16 19 20 21 24 38
23 20 23 18 32 31 25 41 34 35 37 38 42 38 32 33 33 31 30 28 27 23 19 14 8 3 1 4 8 9 12 10 9 6 7 6 7 12 15 19 22 25 34 40
Wind_Direction_850mb
199 239 217 212 223 312 243 246 209 79 128 220 224 171 176 183 192 184 178 167 151 128 110 95 89 84 79 82 78 72 66 62 66 81 131 210 326 312 301 296 296 297 293 290
203 228 192 274 199 221 223 207 130 121 151 260 183 188 202 195 198 193 186 178 162 145 129 112 100 93 92 89 81 73 66 60 62 57 45 26 18 11 6 341 325 320 317 313
254 87 162 193 191 203 211 234 157 13 152 204 187 187 192 197 203 205 206 186 173 164 153 137 123 109 94 89 83 78 74 69 65 60 40 22 17 23 23 13 9 344 341 335
220 126 178 192 186 228 176 149 165 156 225 241 204 278 188 176 203 207 203 198 186 174 161 153 142 129 113 95 93 86 75 66 58 61 57 66 53 38 22 20 356 3 353 353
120 173 186 196 143 240 91 158 211 239 261 289 198 249 117 174 204 208 207 200 192 182 172 163 156 143 127 107 96 85 72 59 52 49 55 57 59 40 34 26 24 16 4 2
94 126 248 67 108 222 144 173 202 241 260 248 249 259 266 194 224 219 194 203 194 182 175 167 161 152 141 123 109 91 76 63 55 48 44 43 46 56 46 37 33 24 19 15
174 164 132 172 151 154 210 222 249 229 210 246 104 243 269 88 11 248 228 202 191 180 177 173 169 163 155 143 129 111 87 71 62 50 37 32 41 49 39 45 28 37 26 23
208 182 182 162 260 273 215 282 272 285 272 268 155 252 122 78 232 226 237 190 184 180 178 176 176 173 167 159 146 137 116 92 60 37 32 45 58 55 51 47 56 42 36 29
217 230 128 50 201 272 174 235 353 287 251 265 265 224 207 187 194 194 189 181 185 185 184 184 186 181 173 174 177 170 169 185 212 9 17 24 38 62 51 42 47 23 27 19
199 238 203 146 182 110 276 113 210 209 272 277 278 249 268 186 205 191 190 194 190 190 192 196 196 195 193 194 197 204 212 216 229 231 249 248 314 352 354 360 358 354 357 358
218 242 152 186 210 230 177 218 240 299 299 293 294 300 70 224 183 190 202 202 199 199 202 205 206 207 206 207 209 211 214 220 234 240 241 247 248 277 304 315 316 319 327 328
200 237 244 220 105 273 271 259 231 251 249 240 295 280 105 147 212 209 210 208 214 217 218 220 219 215 211 215 215 219 216 222 231 233 238 247 253 271 282 291 297 303 306 306
180 209 222 204 194 198 226 212 235 254 275 264 278 266 141 164 184 192 226 222 221 225 227 226 223 220 219 220 220 222 227 233 239 242 245 258 255 271 284 289 292 297 302 297
186 230 231 253 290 77 198 220 219 222 254 274 261 263 221 189 216 224 248 244 251 238 230 231 231 230 229 226 225 227 232 239 249 251 257 266 269 270 282 295 300 299 300 297
221 234 234 250 253 232 251 232 225 234 248 259 270 271 264 270 263 270 283 252 204 170 168 187 211 217 216 220 223 229 237 244 254 270 286 284 286 286 284 282 281 280 281 291
194 235 237 240 231 252 251 245 249 240 244 254 258 268 275 276 272 250 238 168 135 116 110 104 103 105 107 124 193 231 244 251 248 279 270 292 305 312 301 291 294 292 291 285
196 215 221 251 257 265 257 247 245 243 244 253 256 273 1 252 222 199 164 141 127 116 107 103 100 95 90 78 73 75 181 254 287 60 67 29 357 346 327 323 320 318 306 294
203 209 239 255 216 250 257 1 264 257 252 238 244 264 259 209 169 159 159 143 130 118 110 104 101 90 75 69 64 66 77 85 91 71 19 336 321 322 323 326 327 322 317 315
225 218 234 241 229 254 219 200 212 215 239 219 239 222 189 154 157 157 150 143 133 122 108 101 97 93 86 75 73 72 67 56 49 5 332 337 342 333 326 319 319 318 314 315
196 237 236 213 241 251 71 67 183 225 256 220 212 183 169 167 197 162 163 149 137 128 122 115 107 98 85 56 60 62 28 24 10 2 341 325 324 322 320 317 318 314 312 310
202 215 225 232 236 263 198 150 161 218 148 151 180 176 175 190 99 134 150 151 147 139 129 123 120 119 78 30 348 11 86 346 330 327 340 331 322 323 321 319 320 316 314 305
212 208 223 232 241 241 161 167 206 166 139 160 176 178 179 164 138 140 147 150 146 142 132 134 129 116 120 111 108 119 314 317 323 329 324 321 319 322 319 320 322 320 315 322
237 231 240 212 239 117 184 206 202 173 165 172 177 175 174 166 160 154 152 151 153 152 152 140 137 128 121 116 201 281 277 314 316 313 319 320 322 320 321 323 325 333 329 331
219 202 222 187 217 204 196 201 203 193 188 180 175 174 175 172 163 157 153 153 154 154 145 146 153 169 183 256 332 321 302 296 294 298 318 318 325 332 340 347 340 344 348 341
205 174 214 225 202 193 208 206 203 192 182 168 167 169 171 167 162 159 157 159 161 156 152 156 164 176 234 301 305 309 301 298 296 303 316 335 347 4 2 357 348 356 345 338
187 197 203 226 223 212 220 200 190 180 170 167 162 161 163 163 159 157 157 160 157 156 156 155 152 161 205 307 306 309 305 301 286 300 335 333 356 345 353 357 355 350 353 358